This is the latest recevied weather packets stored in our database for station/object WP4PW. If no packets are shown the sender has not sent any weather packets the latest 10 day(s).
| Time | Temp. | Humidity | Pressure | Rain* | Wind** | Luminosity | Snow |
|---|---|---|---|---|---|---|---|
| 1777732149 | 29.44° C | 77% | 1021.8 hPa | 0 mm | - | 706 W/m² | - |
| 1777731846 | 30° C | 77% | 1021.7 hPa | 0 mm | - | 698 W/m² | - |
| 1777731543 | 29.44° C | 76% | 1021.7 hPa | 0 mm | - | 687 W/m² | - |
| 1777731241 | 29.44° C | 77% | 1021.7 hPa | 0 mm | - | 675 W/m² | - |
| 1777730938 | 30° C | 78% | 1022.1 hPa | 0 mm | - | 668 W/m² | - |
| 1777730636 | 29.44° C | 77% | 1021.7 hPa | 0 mm | - | 653 W/m² | - |
| 1777730332 | 30° C | 76% | 1021.9 hPa | 0 mm | - | 645 W/m² | - |
| 1777730029 | 29.44° C | 76% | 1021.9 hPa | 0 mm | - | 639 W/m² | - |
| 1777729725 | 30° C | 77% | 1021.8 hPa | 0 mm | - | 630 W/m² | - |
| 1777729118 | 29.44° C | 77% | 1021.7 hPa | 0 mm | - | 613 W/m² | - |
| 1777728815 | 29.44° C | 80% | 1021.7 hPa | 0 mm | - | 655 W/m² | - |
| 1777728512 | 29.44° C | 78% | 1021.6 hPa | 0 mm | - | 641 W/m² | - |
| 1777728209 | 28.89° C | 79% | 1021.6 hPa | 0 mm | - | 197 W/m² | - |
| 1777727906 | 28.89° C | 80% | 1021.5 hPa | 0 mm | - | 584 W/m² | - |
| 1777727300 | 28.89° C | 80% | 1021.3 hPa | 0 mm | - | 571 W/m² | - |
| 1777726695 | 28.89° C | 82% | 1021.4 hPa | 0 mm | - | 407 W/m² | - |
| 1777725484 | 28.89° C | 81% | 1021 hPa | 0 mm | - | 474 W/m² | - |
| 1777725181 | 28.89° C | 81% | 1020.8 hPa | 0 mm | - | 421 W/m² | - |
| 1777724877 | 28.89° C | 81% | 1020.8 hPa | 0 mm | - | 414 W/m² | - |
| 1777724272 | 28.33° C | 83% | 1020.7 hPa | 0 mm | - | 355 W/m² | - |
| 1777723666 | 28.33° C | 82% | 1020.4 hPa | 0 mm | - | 352 W/m² | - |
| 1777723363 | 28.33° C | 82% | 1020.5 hPa | 0 mm | - | 299 W/m² | - |
| 1777722757 | 27.78° C | 85% | 1020.4 hPa | 0 mm | - | 180 W/m² | - |
| 1777722453 | 28.33° C | 84% | 1020.4 hPa | 0 mm | - | 267 W/m² | - |
| 1777722150 | 27.78° C | 85% | 1020.3 hPa | 0 mm | - | 175 W/m² | - |
* Rain latest hour (hover to see other rain measurements)
** Current wind speed in m/s (hover to see current wind gust speed)